THORAD AGENA D DEB, 4991

Orbit data source: Space-Track

THORAD AGENA D DEB, 4991 is space debris in SSO originally from a launch on Wed, 08 Apr 1970 UTC launched from the Air Force Western Test Range (AFWTR). Debris objects in space refer to the collection of defunct objects orbiting the Earth. Examples of debris include non-operational satellites, rocket bodies, and fragments generated from explosions, collisions, or faulty payload assembly.

Loading next visibility...
Identifier
4991, 1970-025HM
Orbit
SSO
Country
Flag of USUS
Related business
Manufacturer
Unknown
Mission
Spacecraft
Bus & Motor
Unknown
Mass
Unknown
Launch date (UTC)
1970-04-08 (56 years ago)
Launch vehicle
Unknown
Launch site
Air Force Western Test Range (AFWTR)
Object type
Payload
Rocket body
Debris
Shape & HBR
Unknown shape, 0.1 m
Radar Cross Section
Small (<0.1 m²)

Expand to show TLE details & history
Last TLE update: 20 hours ago

TLE from 20 hours ago
0 THORAD AGENA D DEB
1 04991U 70025HM  25352.45219668 -.00000022  00000-0  38348-4 0  9990
2 04991 100.2249 171.4671 0020707 166.2468 223.4464 13.53494369750047
Epoch: 2025-12-18T10:51Z
TLE epoch observation values (Epoch: 2025-12-18T10:51:09.793Z)
Latitude
29.06319°
Longitude
-84.35483°
Altitude
1,074.108 km
Speed
7.312 km/s
True Right ascension
11h 02m 58s
True Declination
28° 55' 25"
Sunlit
Object was in daylight at epoch
Visualization orbit readout
Latitude
Unknown
Longitude
Unknown
Altitude
Unknown
Speed
Unknown
Apparent Right ascension
Unknown
Apparent Declination
Unknown
Sunlit
N/A
Visualization observer readout
Local Sidereal Time
05:58:45
Azimuth
Unknown
Elevation
Unknown
Doppler factor
Unknown
Orbital elements
Apogee altitude
1,072.15 km
Perigee altitude
1,041.359 km
Semi-major axis
7,434.891 km
Eccentricity
0.00207
Inclination
100.2249°
RAAN
171.4671°
Arg. of periapsis
166.2468°
True anomaly
223.28353°
Mean anomaly
223.4464°
Eccentric anomaly
223.36494°
Mean motion
3.38557 °/min
Orbital period
106.33 mins
BSTAR
0.000038348

Documentation

Showing up to 5 results
|